[[{"header":{"parameterUnit":"m.s-1","parameterCategory":1,"la1":30.2992,"la2":30.254,"lo1":-89.0895,"lo2":-89.0443,"dy":0.0025,"dx":0.0025,"nx":19,"ny":19,"refTime":"2026-03-17T03:00:00:Z","depth":0,"parameterNumber":2,"parameterNumberName":"U-component_of_WINDS"},"data":[0,0,0,0.3112,0.3112,0.3111,0.3111,0.3106,0.3106,0,0,0,0,0,0,0,0,0,0,0,0.3109,0.3109,0.3112,0.3112,0.3111,0.3111,0.3106,0.3106,0,0,0,0,0,0,0,0,0,0,0,0.311,0.3109,0.3109,0.3112,0.3111,0.3111,0.3106,0.3108,0,0,0,0,0,0,0,0,0,0,0.3109,0.3104,0.3109,0.3109,0.3112,0.3111,0.3111,0.3108,0.3108,0.3104,0,0.31,0,0.3103,0.3105,0.3105,0,0,0,0.3114,0.3105,0.3107,0.3109,0.3112,0.3111,0.3112,0.3108,0.3107,0.3104,0.31,0.31,0.3103,0.3105,0.3105,0.3079,0.3079,0,0,0.3114,0.3108,0.3107,0.3107,0.3107,0.3112,0.3112,0.3108,0.3103,0.31,0.31,0.3103,0.3105,0.3105,0.3079,0.3079,0,0,0,0.3113,0.3108,0.311,0.3107,0.3107,0.3112,0.3112,0.3104,0.3105,0.31,0.3103,0.3105,0.3105,0.308,0.3079,0.3063,0,0,0,0.3113,0.3107,0.311,0.3106,0.3107,0.3105,0.3108,0.3105,0.3105,0.3103,0.3105,0.3104,0.308,0.3079,0.3064,0.3056,0,0,0,0.311,0.3107,0.3106,0.3106,0.3106,0.3106,0.3107,0.3105,0.3106,0.3105,0.3104,0.308,0.3079,0.3065,0.3058,0.3048,0,0,0,0.3106,0.3091,0.3106,0.309,0.3106,0.3096,0.3107,0.31,0.3097,0.3105,0.308,0.3079,0.3065,0.3059,0.3049,0.3038,0.3033,0,0,0.3084,0.3088,0.308,0.3093,0.3079,0.3097,0.3081,0.3083,0.3088,0.3082,0.3081,0.3064,0.3058,0.3048,0.301,0.3006,0,0,0,0.3071,0.3064,0.3062,0.3059,0.3061,0.3062,0.3068,0.3069,0.3064,0.3084,0.3058,0.3055,0.3049,0.3044,0.3041,0.3037,0.3077,0.3077,0.3077,0.303,0.3038,0.3025,0.3033,0.303,0.3037,0.3035,0.3038,0.3046,0.304,0.3038,0.3014,0.3008,0.3005,0.3001,0.3034,0.3033,0.3033,0.3033,0.2998,0.299,0.3003,0.2995,0.3004,0.2996,0.3003,0.3009,0.3004,0.3016,0.3011,0.3023,0.3001,0.2997,0.3032,0.3032,0.3033,0.3033,0.3033,0.2971,0.2969,0.2972,0.2969,0.2966,0.2975,0.297,0.2978,0.2986,0.2981,0.298,0.298,0.2981,0.298,0.298,0.298,0.298,0.298,0.298,0.2943,0.2946,0.294,0.2943,0.2942,0.2943,0.2951,0.295,0.2952,0.2959,0.2959,0.2968,0.2997,0.3004,0.2979,0.2979,0.2979,0.2979,0.2979,0.2906,0.2916,0.2907,0.2907,0.2911,0.2907,0.2919,0.2918,0.2919,0.2916,0.2927,0.2948,0.2952,0.2955,0.2961,0.2925,0.2925,0.2925,0.2925,0.2883,0.2887,0.288,0.2879,0.288,0.289,0.288,0.2886,0.2894,0.2896,0.2902,0.2911,0.2913,0.2916,0.292,0.2925,0.2882,0.2882,0.2882,0.286,0.2865,0.2854,0.2863,0.2867,0.287,0.2861,0.286,0.2871,0.288,0.2897,0.2899,0.2913,0.2917,0.2925,0.293,0.294,0,0]},{"header":{"parameterUnit":"m.s-1","parameterCategory":1,"la1":30.2992,"la2":30.254,"lo1":-89.0895,"lo2":-89.0443,"dy":0.0025,"dx":0.0025,"nx":19,"ny":19,"refTime":"2026-03-17T03:00:00:Z","depth":0,"parameterNumber":3,"parameterNumberName":"V-component_of_WINDS"},"data":[0,0,0,-6.1718,-6.1721,-6.1847,-6.1847,-6.2018,-6.2019,0,0,0,0,0,0,0,0,0,0,0,-6.1688,-6.169,-6.1718,-6.1721,-6.1847,-6.1847,-6.2017,-6.2019,0,0,0,0,0,0,0,0,0,0,0,-6.1687,-6.1689,-6.1691,-6.1721,-6.1847,-6.1847,-6.2017,-6.1918,0,0,0,0,0,0,0,0,0,0,-6.1794,-6.1775,-6.1689,-6.1691,-6.1722,-6.1847,-6.1847,-6.1913,-6.1924,-6.1965,0,-6.2006,0,-6.2016,-6.2031,-6.2032,0,0,0,-6.1714,-6.1765,-6.1793,-6.1691,-6.1723,-6.1846,-6.1788,-6.1919,-6.1932,-6.198,-6.2008,-6.2014,-6.2018,-6.2033,-6.2034,-6.2299,-6.23,0,0,-6.1707,-6.1714,-6.1784,-6.1801,-6.1785,-6.1784,-6.1792,-6.1927,-6.1957,-6.2009,-6.2018,-6.2021,-6.2034,-6.2035,-6.2297,-6.2299,0,0,0,-6.1692,-6.171,-6.1733,-6.1795,-6.1817,-6.1788,-6.1797,-6.1951,-6.1958,-6.202,-6.2023,-6.2035,-6.2037,-6.2295,-6.2298,-6.2383,0,0,0,-6.1687,-6.1701,-6.1731,-6.1736,-6.1815,-6.1886,-6.1818,-6.1949,-6.1964,-6.2022,-6.2035,-6.2039,-6.2294,-6.2297,-6.2377,-6.2422,0,0,0,-6.1677,-6.1699,-6.1721,-6.1736,-6.1791,-6.1883,-6.1898,-6.1952,-6.1966,-6.2032,-6.2039,-6.2293,-6.2296,-6.2372,-6.2413,-6.2495,0,0,0,-6.1668,-6.1792,-6.1722,-6.1862,-6.179,-6.1936,-6.1897,-6.2004,-6.2071,-6.2036,-6.2294,-6.2298,-6.237,-6.2408,-6.249,-6.2567,-6.2599,0,0,-6.1828,-6.1812,-6.1894,-6.1835,-6.1995,-6.1916,-6.2088,-6.2141,-6.2139,-6.2245,-6.2251,-6.2379,-6.2412,-6.2494,-6.2777,-6.2803,0,0,0,-6.1947,-6.2006,-6.2047,-6.2113,-6.2158,-6.22,-6.2227,-6.2247,-6.2337,-6.2196,-6.243,-6.2449,-6.2497,-6.2534,-6.2556,-6.2597,-6.2314,-6.2314,-6.2314,-6.2184,-6.2178,-6.2313,-6.2323,-6.2387,-6.2414,-6.2465,-6.2496,-6.2468,-6.2524,-6.2556,-6.2729,-6.2772,-6.2788,-6.2831,-6.2595,-6.2595,-6.2595,-6.2596,-6.242,-6.2503,-6.2467,-6.2586,-6.2578,-6.2676,-6.2708,-6.2685,-6.2775,-6.2704,-6.2745,-6.2669,-6.2817,-6.2854,-6.2602,-6.2601,-6.26,-6.26,-6.2599,-6.2575,-6.2614,-6.2638,-6.2734,-6.2808,-6.2812,-6.2901,-6.289,-6.2879,-6.292,-6.2953,-6.2952,-6.295,-6.2937,-6.2937,-6.2938,-6.2938,-6.2939,-6.2939,-6.2728,-6.2752,-6.283,-6.2891,-6.2932,-6.2985,-6.3015,-6.3054,-6.3095,-6.308,-6.308,-6.3048,-6.2833,-6.278,-6.2949,-6.2947,-6.2946,-6.2945,-6.2944,-6.2971,-6.2915,-6.3036,-6.3078,-6.3149,-6.3224,-6.3208,-6.3291,-6.3322,-6.3366,-6.3326,-6.3168,-6.3149,-6.3132,-6.3088,-6.3326,-6.3326,-6.3326,-6.3326,-6.3104,-6.3094,-6.3216,-6.3284,-6.3349,-6.3349,-6.3485,-6.3509,-6.3525,-6.3543,-6.3507,-6.3447,-6.343,-6.3421,-6.3397,-6.3356,-6.3658,-6.3658,-6.3658,-6.3254,-6.325,-6.3369,-6.3386,-6.3441,-6.3488,-6.3616,-6.3695,-6.37,-6.3671,-6.3558,-6.3544,-6.3448,-6.3416,-6.3386,-6.3349,-6.3273,0,0]}]]